This is the latest recevied weather packets stored in our database for station/object K4CRS-13. If no packets are shown the sender has not sent any weather packets the latest 10 day(s).
| Time | Temp. | Humidity | Pressure | Rain* | Wind** | Luminosity | Snow |
|---|---|---|---|---|---|---|---|
| 1777666944 | 17.22° C | 61% | 1049.6 hPa | 0 mm | - | 355 W/m² | - |
| 1777666641 | 16.67° C | 63% | 1049.4 hPa | 0 mm | - | 323 W/m² | - |
| 1777666338 | 16.67° C | 62% | 1049.7 hPa | 0 mm | - | 361 W/m² | - |
| 1777666035 | 16.67° C | 61% | 1049.7 hPa | 0 mm | - | 325 W/m² | - |
| 1777665732 | 16.67° C | 64% | 1050.2 hPa | 0 mm | - | 317 W/m² | - |
| 1777665429 | 16.67° C | 61% | 1050.1 hPa | 0 mm | - | 305 W/m² | - |
| 1777665125 | 16.67° C | 64% | 1050.2 hPa | 0 mm | - | 267 W/m² | - |
| 1777664821 | 16.11° C | 61% | 1050.2 hPa | 0 mm | - | 266 W/m² | - |
| 1777664516 | 16.67° C | 61% | 1050.5 hPa | 0 mm | - | 289 W/m² | - |
| 1777664214 | 16.67° C | 62% | 1050.3 hPa | 0 mm | - | 309 W/m² | - |
| 1777663913 | 16.67° C | 62% | 1050.5 hPa | 0 mm | - | 282 W/m² | - |
| 1777663609 | 16.67° C | 61% | 1050.7 hPa | 0 mm | - | 281 W/m² | - |
| 1777663307 | 16.67° C | 61% | 1051 hPa | 0 mm | - | 311 W/m² | - |
| 1777663004 | 16.11° C | 61% | 1051 hPa | 0 mm | - | 300 W/m² | - |
| 1777662701 | 16.11° C | 62% | 1050.8 hPa | 0 mm | - | 276 W/m² | - |
| 1777662397 | 16.11° C | 60% | 1050.8 hPa | 0 mm | - | 280 W/m² | - |
| 1777662092 | 16.11° C | 60% | 1051.1 hPa | 0 mm | - | 292 W/m² | - |
| 1777661789 | 16.11° C | 60% | 1050.9 hPa | 0 mm | - | 262 W/m² | - |
| 1777661484 | 16.11° C | 60% | 1051 hPa | 0 mm | - | 257 W/m² | - |
| 1777661181 | 16.11° C | 60% | 1051.2 hPa | 0 mm | - | 277 W/m² | - |
| 1777660875 | 16.11° C | 59% | 1051.2 hPa | 0 mm | - | 268 W/m² | - |
| 1777660573 | 16.11° C | 59% | 1050.9 hPa | 0 mm | - | 260 W/m² | - |
| 1777660269 | 16.11° C | 58% | 1051.1 hPa | 0 mm | - | 261 W/m² | - |
| 1777659966 | 16.11° C | 60% | 1051.1 hPa | 0 mm | - | 261 W/m² | - |
| 1777659663 | 16.11° C | 58% | 1051 hPa | 0 mm | - | 246 W/m² | - |
* Rain latest hour (hover to see other rain measurements)
** Current wind speed in m/s (hover to see current wind gust speed)